[[{"header":{"parameterUnit":"m.s-1","parameterCategory":1,"la1":30.2991,"la2":30.254,"lo1":-89.0895,"lo2":-89.0444,"dy":0.0017,"dx":0.0017,"nx":28,"ny":28,"refTime":"2023-11-02T09:00:00:Z","depth":0,"parameterNumber":2,"parameterNumberName":"U-component_of_WINDS"},"data":[0,0,0,0,0,0,0,0,0,0,0,0,0,0,0,0,0,0,0,0,0,0,0,0,0,0,0,0,0,0,0,0,0,0,0,0,0,0,0,0,0,0,0,0,0,0,0,0,0,0,0,0,0,0,0,0,0,0,-3.5651,-3.5652,0,-3.5757,-3.5758,-3.5759,-3.5649,-3.5644,-3.564,-3.5636,-3.5745,-3.5752,-3.5758,0,0,0,0,0,0,0,0,0,0,0,0,0,-3.5354,-3.536,-3.5651,-3.5653,-3.5654,-3.5757,-3.5758,-3.5759,-3.5649,-3.5644,-3.5639,-3.5634,-3.5743,-3.5751,-3.5759,0,0,0,0,0,0,0,0,0,0,0,0,0,-3.5474,-3.5362,-3.5651,-3.5611,-3.5609,-3.5756,-3.5758,-3.576,-3.5651,-3.5644,-3.5638,-3.5632,-3.574,-3.575,-3.576,-3.5952,0,0,-3.5792,-3.5796,0,0,0,0,0,0,0,0,-3.5467,-3.5485,-3.5616,-3.5614,-3.5612,-3.5683,-3.5693,-3.5824,-3.5652,-3.5635,-3.5636,-3.5629,-3.573,-3.574,-3.5774,-3.5957,-3.5962,-3.5793,-3.5799,-3.5803,-3.5806,0,0,0,0,0,0,0,-3.5459,-3.548,-3.5693,-3.5618,-3.5615,-3.5588,-3.5598,-3.5718,-3.5717,-3.5636,-3.5628,-3.5642,-3.5727,-3.5765,-3.5776,-3.5964,-3.5792,-3.5802,-3.5808,-3.5812,-3.631,-3.6317,0,0,0,0,0,0,-3.5455,-3.5474,-3.569,-3.5696,-3.5522,-3.5599,-3.561,-3.5667,-3.5715,-3.5716,-3.5647,-3.5636,-3.575,-3.5764,-3.5779,-3.6009,-3.5803,-3.5813,-3.5819,-3.6303,-3.6312,-3.6319,0,0,0,0,0,0,-3.5449,-3.5476,-3.5685,-3.5583,-3.5607,-3.5611,-3.5675,-3.5672,-3.5709,-3.5724,-3.5723,-3.5686,-3.5746,-3.5765,-3.591,-3.6011,-3.5818,-3.5827,-3.6295,-3.6306,-3.6316,-3.6469,0,0,0,0,0,0,-3.5441,-3.5474,-3.5548,-3.5585,-3.5613,-3.5815,-3.5681,-3.5679,-3.5727,-3.5714,-3.576,-3.5761,-3.5742,-3.5895,-3.5921,-3.6022,-3.5835,-3.6286,-3.63,-3.6312,-3.6455,-3.6483,-3.6508,0,0,0,0,0,-3.5431,-3.5586,-3.5552,-3.5578,-3.5705,-3.5821,-3.5837,-3.5812,-3.5736,-3.581,-3.5819,-3.576,-3.5995,-3.5911,-3.5939,-3.6045,-3.628,-3.6296,-3.6311,-3.6443,-3.6478,-3.6507,0,0,0,0,0,0,-3.5561,-3.5591,-3.5553,-3.5725,-3.5771,-3.5802,-3.5895,-3.5849,-3.5918,-3.5903,-3.5868,-3.588,-3.6034,-3.6053,-3.5959,-3.6233,-3.6125,-3.6147,-3.6216,-3.6249,-3.6275,-3.6269,-3.5844,0,0,0,0,0,-3.5609,-3.5701,-3.5722,-3.5872,-3.5897,-3.5892,-3.5942,-3.5918,-3.5965,-3.5984,-3.6004,-3.6052,-3.6136,-3.6193,-3.6271,-3.6456,-3.6465,-3.6542,-3.6568,-3.659,-3.661,-3.671,-3.6745,-3.6371,-3.6371,-3.6371,0,0,-3.5711,-3.5739,-3.5799,-3.5899,-3.5932,-3.6028,-3.591,-3.6016,-3.6087,-3.6,-3.6139,-3.6155,-3.6206,-3.6372,-3.6446,-3.6393,-3.6715,-3.661,-3.6627,-3.6636,-3.673,-3.6766,-3.6797,-3.6382,-3.638,-3.6378,0,0,-3.5946,-3.5975,-3.6104,-3.614,-3.6191,-3.6186,-3.6217,-3.6255,-3.6263,-3.6401,-3.6338,-3.6421,-3.6568,-3.6607,-3.6646,-3.6895,-3.6844,-3.6921,-3.706,-3.7158,-3.7188,-3.7214,-3.7305,-3.7337,-3.694,-3.6941,-3.6941,0,-3.6067,-3.6209,-3.6176,-3.6288,-3.6334,-3.6258,-3.6389,-3.6424,-3.6499,-3.6533,-3.6471,-3.6654,-3.6682,-3.6857,-3.6918,-3.6951,-3.6986,-3.6917,-3.7186,-3.7212,-3.7236,-3.7322,-3.7356,-3.695,-3.6949,-3.6948,-3.6947,0,-3.6355,-3.6455,-3.6552,-3.6627,-3.6683,-3.6804,-3.679,-3.6851,-3.6821,-3.6823,-3.6965,-3.6997,-3.7081,-3.712,-3.7092,-3.7291,-3.7256,-3.7191,-3.7082,-3.7281,-3.7362,-3.7394,-3.6964,-3.696,-3.6957,-3.6955,0,0,-3.6679,-3.6732,-3.6769,-3.6802,-3.6852,-3.6928,-3.7045,-3.7127,-3.7181,-3.7234,-3.7332,-3.7456,-3.7396,-3.7441,-3.7416,-3.7502,-3.7699,-3.7426,-3.7426,-3.7478,-3.7922,-3.7974,-3.8012,-3.7663,-3.7669,-3.7674,-3.7919,0,-3.6917,-3.712,-3.7093,-3.7288,-3.738,-3.7308,-3.741,-3.7452,-3.7456,-3.7535,-3.7539,-3.7629,-3.7541,-3.7568,-3.7649,-3.7658,-3.7788,-3.7639,-3.7756,-3.7761,-3.7749,-3.8054,-3.8109,-3.8339,-3.795,-3.7955,-3.7959,0,-3.7223,-3.7288,-3.7492,-3.7528,-3.7566,-3.7658,-3.7731,-3.7806,-3.7852,-3.7849,-3.7898,-3.7858,-3.7975,-3.7862,-3.8023,-3.7923,-3.7968,-3.7979,-3.7987,-3.8,-3.7875,-3.8078,-3.8411,-3.8447,-3.8008,-3.8004,-3.8,0,-3.7442,-3.7579,-3.772,-3.775,-3.7795,-3.7861,-3.7883,-3.7922,-3.7973,-3.8036,-3.8069,-3.8145,-3.8188,-3.8247,-3.8229,-3.8147,-3.8395,-3.8279,-3.8397,-3.8398,-3.8456,-3.8453,-3.8804,-3.848,-3.8479,-3.8479,-3.8478,0,-3.7713,-3.7842,-3.7819,-3.7906,-3.8048,-3.8014,-3.8156,-3.8168,-3.8204,-3.8292,-3.8232,-3.8317,-3.8285,-3.8367,-3.8353,-3.849,-3.8509,-3.8511,-3.8506,-3.8518,-3.8519,-3.8551,-3.8535,-3.8488,-3.8486,-3.8484,-3.8482,0,-3.7984,-3.7973,-3.8122,-3.8152,-3.8162,-3.8266,-3.8291,-3.8372,-3.837,-3.8483,-3.8507,-3.8505,-3.8599,-3.8585,-3.8689,-3.8679,-3.8851,-3.8825,-3.8836,-3.8832,-3.8951,-3.8942,-3.9338,-3.9389,-3.9029,-3.9032,-3.9035,0,-3.816,-3.8257,-3.8297,-3.8352,-3.8378,-3.8467,-3.8518,-3.8488,-3.8545,-3.8603,-3.8678,-3.8766,-3.8835,-3.8988,-3.8996,-3.9075,-3.9053,-3.9186,-3.9065,-3.9074,-3.9058,-3.9055,-3.9065,-3.9211,-3.9215,-3.9219,-3.9221,0,-3.8474,-3.8463,-3.854,-3.8615,-3.8678,-3.8736,-3.8787,-3.8835,-3.881,-3.8876,-3.8971,-3.9025,-3.913,-3.9219,-3.9293,-3.9314,-3.9266,-3.9259,-3.9291,-3.9306,-3.931,-3.9313,-3.8905,-3.9251,-3.9248,-3.9246,-3.9244,-3.9243,-3.8705,-3.8788,-3.8829,-3.8917,-3.8952,-3.9001,-3.908,-3.9087,-3.9166,-3.925,-3.9226,-3.9335,-3.9377,-3.9471,-3.9501,-3.9585,-3.9536,-3.9582,-3.9594,-3.9607,-3.9623,-3.9293,-3.9597,-3.9597,-3.9596,-3.9595,-3.9594,0,-3.9019,-3.9041,-3.9121,-3.9195,-3.9264,-3.9209,-3.9263,-3.9324,-3.942,-3.9463,-3.9532,-3.9641,-3.9726,-3.974,-3.9821,-3.9886,-3.9865,-3.9909,-3.9906,-3.9912,-3.966,-3.9626,-3.9924,-3.9924,-3.9924,-3.9924,-3.9924,-3.9924,-3.919,-3.9329,-3.9324,-3.9479,-3.95,-3.9606,-3.9641,-3.9687,-3.9721,-3.9846,-3.9916,-3.9924,-3.9956,-4.0038,-4.0114,-4.0116,-4.015,-4.0203,-4.0196,-3.9962,-3.9929,-3.9898,-3.9866,-4.021,-4.021,-4.0441,-4.0444,-4.0445]},{"header":{"parameterUnit":"m.s-1","parameterCategory":1,"la1":30.2991,"la2":30.254,"lo1":-89.0895,"lo2":-89.0444,"dy":0.0017,"dx":0.0017,"nx":28,"ny":28,"refTime":"2023-11-02T09:00:00:Z","depth":0,"parameterNumber":3,"parameterNumberName":"V-component_of_WINDS"},"data":[0,0,0,0,0,0,0,0,0,0,0,0,0,0,0,0,0,0,0,0,0,0,0,0,0,0,0,0,0,0,0,0,0,0,0,0,0,0,0,0,0,0,0,0,0,0,0,0,0,0,0,0,0,0,0,0,0,0,-5.3307,-5.3308,0,-5.339,-5.3391,-5.3391,-5.3326,-5.3323,-5.332,-5.3318,-5.3397,-5.3401,-5.3406,0,0,0,0,0,0,0,0,0,0,0,0,0,-5.3085,-5.309,-5.3307,-5.3308,-5.3309,-5.3389,-5.3391,-5.3392,-5.3326,-5.3323,-5.3319,-5.3316,-5.3395,-5.3401,-5.3406,0,0,0,0,0,0,0,0,0,0,0,0,0,-5.3176,-5.3091,-5.3307,-5.3286,-5.3285,-5.3389,-5.3391,-5.3392,-5.3327,-5.3323,-5.3319,-5.3315,-5.3393,-5.34,-5.3407,-5.3534,0,0,-5.3429,-5.3432,0,0,0,0,0,0,0,0,-5.3171,-5.3184,-5.3288,-5.3288,-5.3287,-5.3343,-5.3341,-5.344,-5.3328,-5.3311,-5.3317,-5.3313,-5.3382,-5.339,-5.3414,-5.3538,-5.3541,-5.3429,-5.3434,-5.3437,-5.3439,0,0,0,0,0,0,0,-5.3165,-5.318,-5.3339,-5.329,-5.3289,-5.327,-5.3279,-5.336,-5.3369,-5.3312,-5.3308,-5.3318,-5.3381,-5.3408,-5.3416,-5.3543,-5.3429,-5.3435,-5.344,-5.3443,-5.3771,-5.3775,0,0,0,0,0,0,-5.3161,-5.3175,-5.3337,-5.3342,-5.3218,-5.3278,-5.3287,-5.3329,-5.3368,-5.337,-5.3322,-5.3315,-5.3398,-5.3407,-5.3418,-5.3567,-5.3437,-5.3443,-5.3447,-5.3767,-5.3772,-5.3777,0,0,0,0,0,0,-5.3157,-5.3176,-5.3333,-5.3258,-5.3276,-5.3286,-5.3334,-5.3333,-5.336,-5.3375,-5.3376,-5.3348,-5.3395,-5.3408,-5.3505,-5.3569,-5.3446,-5.3453,-5.3761,-5.3768,-5.3775,-5.3867,0,0,0,0,0,0,-5.3151,-5.3175,-5.3225,-5.3259,-5.328,-5.3422,-5.3338,-5.3338,-5.3373,-5.3365,-5.34,-5.3402,-5.3392,-5.3495,-5.3513,-5.3576,-5.3458,-5.3756,-5.3764,-5.3772,-5.3859,-5.3877,-5.3892,0,0,0,0,0,-5.3143,-5.3248,-5.3228,-5.3248,-5.3344,-5.3426,-5.3438,-5.3426,-5.3378,-5.3427,-5.3437,-5.3401,-5.356,-5.3506,-5.3525,-5.3592,-5.3752,-5.3762,-5.3772,-5.3851,-5.3873,-5.3891,0,0,0,0,0,0,-5.322,-5.3252,-5.3231,-5.335,-5.3386,-5.3415,-5.3476,-5.345,-5.3499,-5.3489,-5.3471,-5.348,-5.3582,-5.3596,-5.3536,-5.3715,-5.3647,-5.3662,-5.3702,-5.3722,-5.3739,-5.3732,-5.3464,0,0,0,0,0,-5.3251,-5.3317,-5.3341,-5.3443,-5.3462,-5.3467,-5.3502,-5.349,-5.3526,-5.354,-5.3557,-5.3591,-5.3648,-5.3686,-5.374,-5.3861,-5.3866,-5.3916,-5.3932,-5.3946,-5.3958,-5.402,-5.4041,-5.381,-5.381,-5.381,0,0,-5.3315,-5.3341,-5.3383,-5.3459,-5.3486,-5.3552,-5.348,-5.3553,-5.3601,-5.355,-5.3643,-5.3657,-5.3693,-5.3803,-5.3851,-5.3818,-5.4023,-5.3959,-5.397,-5.3974,-5.4032,-5.4054,-5.4074,-5.3817,-5.3816,-5.3815,0,0,-5.3465,-5.3493,-5.358,-5.3608,-5.3649,-5.3651,-5.3672,-5.3705,-5.3712,-5.3805,-5.3768,-5.3824,-5.3924,-5.3951,-5.3978,-5.4136,-5.4104,-5.4154,-5.424,-5.4301,-5.4319,-5.4335,-5.4389,-5.4409,-5.4167,-5.4167,-5.4167,0,-5.3539,-5.364,-5.3628,-5.3704,-5.3737,-5.3696,-5.3782,-5.3809,-5.3865,-5.3888,-5.385,-5.3973,-5.3995,-5.4109,-5.4147,-5.4171,-5.4192,-5.415,-5.4318,-5.4333,-5.4348,-5.4399,-5.442,-5.4173,-5.4172,-5.4171,-5.4171,0,-5.3727,-5.3797,-5.3862,-5.3919,-5.3959,-5.404,-5.4038,-5.408,-5.4064,-5.4069,-5.4163,-5.4188,-5.4245,-5.4271,-5.4257,-5.4382,-5.4359,-5.432,-5.4252,-5.4376,-5.4424,-5.4443,-5.4181,-5.4179,-5.4177,-5.4176,0,0,-5.3928,-5.3976,-5.4,-5.4024,-5.4066,-5.4118,-5.4196,-5.4253,-5.4288,-5.4328,-5.439,-5.4476,-5.4439,-5.4469,-5.4457,-5.4511,-5.4631,-5.4464,-5.4465,-5.4492,-5.4767,-5.4795,-5.4818,-5.4611,-5.4614,-5.4617,-5.4763,0,-5.4078,-5.4216,-5.4206,-5.4335,-5.4397,-5.4358,-5.4425,-5.4456,-5.4463,-5.4515,-5.4521,-5.458,-5.4529,-5.4547,-5.4598,-5.4606,-5.4686,-5.4595,-5.4666,-5.4669,-5.4656,-5.4844,-5.4874,-5.5011,-5.4782,-5.4785,-5.4788,0,-5.4272,-5.4319,-5.4454,-5.4485,-5.451,-5.4571,-5.4621,-5.4673,-5.4706,-5.4707,-5.4741,-5.4719,-5.4794,-5.4726,-5.4827,-5.4766,-5.4794,-5.4802,-5.4807,-5.4811,-5.4734,-5.4851,-5.5054,-5.5074,-5.4817,-5.4815,-5.4813,0,-5.4402,-5.4499,-5.4592,-5.4614,-5.4652,-5.4695,-5.4713,-5.4743,-5.4777,-5.482,-5.4841,-5.4893,-5.492,-5.4959,-5.495,-5.4902,-5.5053,-5.4985,-5.5053,-5.5054,-5.5086,-5.5083,-5.5294,-5.5108,-5.5108,-5.5107,-5.5107,0,-5.457,-5.4653,-5.465,-5.4707,-5.4798,-5.4786,-5.4875,-5.4887,-5.4914,-5.497,-5.4939,-5.4992,-5.4979,-5.5031,-5.5025,-5.5108,-5.5121,-5.5122,-5.5119,-5.5124,-5.5123,-5.514,-5.513,-5.5113,-5.5112,-5.511,-5.511,0,-5.4729,-5.4732,-5.4829,-5.4858,-5.4866,-5.4932,-5.4955,-5.5007,-5.501,-5.5082,-5.5098,-5.5103,-5.5162,-5.5158,-5.5225,-5.522,-5.5323,-5.531,-5.5312,-5.5308,-5.5376,-5.5369,-5.5603,-5.5632,-5.543,-5.5432,-5.5433,0,-5.4835,-5.4898,-5.4934,-5.497,-5.499,-5.5049,-5.5084,-5.5073,-5.511,-5.5152,-5.5199,-5.5255,-5.53,-5.5396,-5.5404,-5.5454,-5.544,-5.5519,-5.5447,-5.5449,-5.5438,-5.5434,-5.5438,-5.5532,-5.5535,-5.5536,-5.5538,0,-5.5022,-5.502,-5.5072,-5.5124,-5.5167,-5.5207,-5.5243,-5.5274,-5.5267,-5.531,-5.537,-5.5405,-5.5473,-5.5528,-5.5576,-5.5591,-5.5562,-5.5561,-5.5579,-5.5583,-5.5581,-5.558,-5.5348,-5.5555,-5.5553,-5.5552,-5.5551,-5.555,-5.5156,-5.521,-5.5242,-5.5301,-5.5327,-5.5362,-5.5411,-5.5421,-5.5473,-5.5528,-5.5518,-5.5585,-5.5615,-5.5676,-5.5695,-5.5746,-5.5718,-5.5745,-5.5751,-5.5757,-5.5764,-5.5575,-5.5755,-5.5755,-5.5754,-5.5754,-5.5753,0,-5.5339,-5.5358,-5.5412,-5.5465,-5.551,-5.5481,-5.552,-5.5558,-5.5619,-5.565,-5.5694,-5.5762,-5.5816,-5.5828,-5.5878,-5.5916,-5.5904,-5.593,-5.5926,-5.5929,-5.5788,-5.5766,-5.5939,-5.5938,-5.5938,-5.5938,-5.5938,-5.5938,-5.5439,-5.5527,-5.5529,-5.5628,-5.5646,-5.5713,-5.5737,-5.5767,-5.5792,-5.587,-5.5914,-5.5923,-5.5945,-5.5996,-5.6043,-5.6045,-5.6064,-5.6094,-5.6091,-5.5958,-5.5939,-5.5922,-5.5901,-5.6099,-5.6099,-5.6227,-5.6228,-5.6229]}]]